When you browse on this site, cookies collect data to enhance your experience and personalize the content and advertising you see.
Visit our Privacy Policy to learn more. By continuing to use the site, you agree to this use of cookies and data.
  • Em Portugal
  • Lista de países
  • Para 7 dias
  • Temperatura da água
  • Mapa do tempo
  • Widgets de tempo
  • user-avatar
    Iniciar Sessão

    Previsão horária em Sozopol

    Hoje, 14 Novembro, Quinta-feira

    Tempo Temperatura Precipitação Vento Pressão Humidade
    00:00 +19°C° 0 mm 1 m/s 755 mmHg 68%
    01:00 +18°C° 0 mm 2 m/s 755 mmHg 69%
    02:00 +17°C° 0 mm 3 m/s 754 mmHg 72%
    03:00 +17°C° 0 mm 3 m/s 754 mmHg 74%
    04:00 +17°C° 0 mm 2 m/s 754 mmHg 77%
    05:00 +16°C° 0 mm 2 m/s 754 mmHg 80%
    06:00 +16°C° 0 mm 2 m/s 754 mmHg 83%
    07:00 +16°C° 0 mm 2 m/s 754 mmHg 86%
    08:00 +16°C° 0 mm 2 m/s 754 mmHg 89%
    09:00 +17°C° 0 mm 2 m/s 754 mmHg 86%
    10:00 +18°C° 0 mm 2 m/s 754 mmHg 82%
    11:00 +19°C° 0 mm 2 m/s 754 mmHg 79%
    12:00 +20°C° 0 mm 2 m/s 754 mmHg 72%
    13:00 +20°C° 0 mm 2 m/s 753 mmHg 65%
    14:00 +21°C° 0 mm 2 m/s 753 mmHg 58%
    15:00 +20°C° 0 mm 2 m/s 753 mmHg 63%
    16:00 +19°C° 0 mm 2 m/s 753 mmHg 68%
    17:00 +18°C° 0 mm 2 m/s 753 mmHg 73%
    18:00 +18°C° 0.1 mm 2 m/s 754 mmHg 74%
    19:00 +18°C° 0.1 mm 3 m/s 754 mmHg 75%
    20:00 +17°C° 0.1 mm 3 m/s 754 mmHg 76%
    21:00 +17°C° 0 mm 3 m/s 754 mmHg 78%
    22:00 +17°C° 0 mm 3 m/s 755 mmHg 79%
    23:00 +17°C° 0 mm 4 m/s 755 mmHg 80%

    Amanhã, 15 Novembro, Sexta-feira

    Tempo Temperatura Precipitação Vento Pressão Humidade
    00:00 +16°C° 0 mm 3 m/s 755 mmHg 82%
    01:00 +16°C° 0 mm 3 m/s 755 mmHg 83%
    02:00 +14°C° 0 mm 3 m/s 756 mmHg 85%
    03:00 +14°C° 0 mm 3 m/s 756 mmHg 87%
    04:00 +14°C° 0 mm 3 m/s 756 mmHg 88%
    05:00 +13°C° 0 mm 3 m/s 756 mmHg 90%
    06:00 +14°C° 0 mm 2 m/s 757 mmHg 90%
    07:00 +14°C° 0 mm 2 m/s 757 mmHg 89%
    08:00 +15°C° 0 mm 2 m/s 758 mmHg 89%
    09:00 +16°C° 0 mm 2 m/s 758 mmHg 80%
    10:00 +18°C° 0 mm 2 m/s 758 mmHg 71%
    11:00 +20°C° 0 mm 2 m/s 759 mmHg 62%
    12:00 +21°C° 0 mm 2 m/s 759 mmHg 59%
    13:00 +21°C° 0 mm 2 m/s 759 mmHg 56%
    14:00 +23°C° 0 mm 2 m/s 759 mmHg 54%
    15:00 +20°C° 0 mm 2 m/s 759 mmHg 59%
    16:00 +19°C° 0 mm 2 m/s 759 mmHg 64%
    17:00 +18°C° 0 mm 2 m/s 759 mmHg 69%
    18:00 +17°C° 0 mm 2 m/s 760 mmHg 71%
    19:00 +17°C° 0 mm 2 m/s 760 mmHg 73%
    20:00 +16°C° 0 mm 2 m/s 761 mmHg 75%
    21:00 +16°C° 0 mm 2 m/s 761 mmHg 76%
    22:00 +16°C° 0 mm 2 m/s 761 mmHg 76%
    23:00 +15°C° 0 mm 2 m/s 761 mmHg 77%

    Depois de amanhã, 16 Novembro, Sábado

    Tempo Temperatura Precipitação Vento Pressão Humidade
    00:00 +15°C° 0 mm 2 m/s 761 mmHg 78%
    01:00 +15°C° 0 mm 1 m/s 762 mmHg 78%
    02:00 +15°C° 0 mm 1 m/s 762 mmHg 79%
    03:00 +14°C° 0 mm 1 m/s 762 mmHg 80%
    04:00 +14°C° 0 mm 1 m/s 762 mmHg 80%
    05:00 +14°C° 0 mm 1 m/s 762 mmHg 81%
    06:00 +14°C° 0 mm 1 m/s 762 mmHg 79%
    07:00 +14°C° 0 mm 1 m/s 762 mmHg 78%
    08:00 +15°C° 0 mm 1 m/s 763 mmHg 76%
    09:00 +16°C° 0 mm 1 m/s 763 mmHg 70%
    10:00 +19°C° 0 mm 1 m/s 763 mmHg 63%
    11:00 +21°C° 0 mm 1 m/s 763 mmHg 56%
    12:00 +20°C° 0 mm 2 m/s 762 mmHg 57%
    13:00 +21°C° 0 mm 3 m/s 762 mmHg 57%
    14:00 +21°C° 0 mm 3 m/s 762 mmHg 58%
    15:00 +19°C° 0 mm 3 m/s 762 mmHg 66%
    16:00 +18°C° 0 mm 3 m/s 762 mmHg 75%
    17:00 +17°C° 0 mm 3 m/s 762 mmHg 84%
    18:00 +16°C° 0 mm 3 m/s 762 mmHg 87%
    19:00 +16°C° 0 mm 3 m/s 762 mmHg 90%
    20:00 +15°C° 0 mm 2 m/s 762 mmHg 93%
    21:00 +15°C° 0 mm 2 m/s 762 mmHg 93%
    22:00 +15°C° 0 mm 2 m/s 762 mmHg 94%
    23:00 +15°C° 0 mm 2 m/s 762 mmHg 94%

    17 Novembro, Domingo

    Tempo Temperatura Precipitação Vento Pressão Humidade
    00:00 +15°C° 0 mm 2 m/s 762 mmHg 94%
    01:00 +15°C° 0 mm 2 m/s 762 mmHg 94%
    02:00 +13°C° 0 mm 3 m/s 762 mmHg 94%
    03:00 +13°C° 0 mm 3 m/s 762 mmHg 95%
    04:00 +13°C° 0 mm 3 m/s 761 mmHg 95%
    05:00 +13°C° 0 mm 3 m/s 761 mmHg 96%
    06:00 +13°C° 0 mm 3 m/s 761 mmHg 95%
    07:00 +14°C° 0 mm 3 m/s 761 mmHg 94%
    08:00 +14°C° 0 mm 3 m/s 761 mmHg 94%
    09:00 +16°C° 0 mm 3 m/s 761 mmHg 87%
    10:00 +17°C° 0 mm 4 m/s 761 mmHg 80%
    11:00 +18°C° 0 mm 4 m/s 761 mmHg 73%
    12:00 +18°C° 0 mm 4 m/s 761 mmHg 72%
    13:00 +19°C° 0 mm 4 m/s 760 mmHg 71%
    14:00 +19°C° 0 mm 3 m/s 760 mmHg 70%
    15:00 +18°C° 0 mm 3 m/s 760 mmHg 77%
    16:00 +17°C° 0 mm 3 m/s 760 mmHg 84%
    17:00 +16°C° 0 mm 3 m/s 760 mmHg 91%
    18:00 +14°C° 0 mm 3 m/s 760 mmHg 93%
    19:00 +15°C° 0 mm 2 m/s 760 mmHg 94%
    20:00 +15°C° 0 mm 2 m/s 760 mmHg 96%
    21:00 +15°C° 0 mm 2 m/s 760 mmHg 96%
    22:00 +14°C° 0 mm 2 m/s 760 mmHg 96%
    23:00 +14°C° 0 mm 2 m/s 760 mmHg 96%

    18 Novembro, Segunda-feira

    Tempo Temperatura Precipitação Vento Pressão Humidade
    00:00 +14°C° 0 mm 1 m/s 760 mmHg 95%
    01:00 +14°C° 0 mm 1 m/s 759 mmHg 94%
    02:00 +14°C° 0 mm 1 m/s 759 mmHg 93%
    03:00 +14°C° 0 mm 1 m/s 759 mmHg 93%
    04:00 +14°C° 0 mm 1 m/s 759 mmHg 92%
    05:00 +14°C° 0 mm 1 m/s 759 mmHg 92%
    06:00 +14°C° 0 mm 1 m/s 759 mmHg 90%
    07:00 +14°C° 0 mm 1 m/s 759 mmHg 88%
    08:00 +15°C° 0 mm 2 m/s 759 mmHg 86%
    09:00 +16°C° 0 mm 2 m/s 759 mmHg 78%
    10:00 +18°C° 0 mm 2 m/s 759 mmHg 69%
    11:00 +20°C° 0 mm 2 m/s 759 mmHg 60%
    12:00 +21°C° 0 mm 3 m/s 759 mmHg 58%
    13:00 +21°C° 0 mm 3 m/s 759 mmHg 56%
    14:00 +22°C° 0 mm 4 m/s 759 mmHg 54%
    15:00 +21°C° 0 mm 3 m/s 759 mmHg 59%
    16:00 +19°C° 0 mm 3 m/s 759 mmHg 64%
    17:00 +18°C° 0 mm 2 m/s 759 mmHg 69%
    18:00 +18°C° 0 mm 2 m/s 759 mmHg 72%
    19:00 +17°C° 0 mm 2 m/s 760 mmHg 75%
    20:00 +16°C° 0 mm 2 m/s 760 mmHg 78%
    21:00 +16°C° 0 mm 2 m/s 760 mmHg 81%
    22:00 +16°C° 0 mm 2 m/s 760 mmHg 84%
    23:00 +16°C° 0 mm 2 m/s 760 mmHg 86%

    19 Novembro, Terça-feira

    Tempo Temperatura Precipitação Vento Pressão Humidade
    00:00 +16°C° 0 mm 2 m/s 760 mmHg 88%
    01:00 +15°C° 0 mm 2 m/s 760 mmHg 89%
    02:00 +15°C° 0 mm 2 m/s 760 mmHg 90%
    03:00 +15°C° 0 mm 2 m/s 760 mmHg 91%
    04:00 +15°C° 0 mm 2 m/s 760 mmHg 91%
    05:00 +15°C° 0 mm 2 m/s 760 mmHg 92%
    06:00 +15°C° 0 mm 2 m/s 760 mmHg 91%
    07:00 +15°C° 0 mm 2 m/s 760 mmHg 90%
    08:00 +15°C° 0 mm 2 m/s 761 mmHg 89%
    09:00 +17°C° 0 mm 2 m/s 761 mmHg 80%
    10:00 +19°C° 0 mm 2 m/s 761 mmHg 72%
    11:00 +21°C° 0 mm 2 m/s 761 mmHg 63%
    12:00 +21°C° 0 mm 2 m/s 760 mmHg 60%
    13:00 +21°C° 0 mm 3 m/s 760 mmHg 57%
    14:00 +22°C° 0 mm 3 m/s 760 mmHg 54%
    15:00 +21°C° 0 mm 3 m/s 760 mmHg 59%
    16:00 +19°C° 0 mm 3 m/s 760 mmHg 64%
    17:00 +18°C° 0 mm 3 m/s 760 mmHg 69%
    18:00 +18°C° 0 mm 3 m/s 760 mmHg 72%
    19:00 +17°C° 0 mm 3 m/s 760 mmHg 75%
    20:00 +17°C° 0 mm 3 m/s 760 mmHg 77%
    21:00 +16°C° 0 mm 2 m/s 760 mmHg 79%
    22:00 +16°C° 0 mm 2 m/s 760 mmHg 80%
    23:00 +16°C° 0 mm 2 m/s 760 mmHg 82%
    Mostrar mais